Hourly Weather Dzierzaniny

Today, 12 May, Wednesday

Time Temperature Precipitation Wind Pressure Humidity
00:00 +14°C° 0 mm 2 mps 720 mmHg 92%
01:00 +13°C° 0 mm 2 mps 719 mmHg 93%
02:00 +13°C° 0 mm 2 mps 719 mmHg 93%
03:00 +13°C° 0 mm 2 mps 719 mmHg 93%
04:00 +13°C° 0 mm 2 mps 719 mmHg 93%
05:00 +15°C° 0 mm 2 mps 719 mmHg 88%
06:00 +17°C° 0 mm 2 mps 719 mmHg 83%
07:00 +18°C° 0 mm 2 mps 719 mmHg 78%
08:00 +20°C° 0 mm 2 mps 719 mmHg 71%
09:00 +23°C° 0 mm 2 mps 719 mmHg 64%
10:00 +24°C° 0 mm 3 mps 719 mmHg 57%
11:00 +23°C° 0 mm 4 mps 719 mmHg 55%
12:00 +25°C° 0 mm 5 mps 718 mmHg 53%
13:00 +24°C° 0 mm 6 mps 718 mmHg 51%
14:00 +23°C° 0 mm 6 mps 718 mmHg 54%
15:00 +23°C° 0 mm 6 mps 717 mmHg 58%
16:00 +22°C° 0 mm 6 mps 717 mmHg 61%
17:00 +20°C° 0.1 mm 6 mps 717 mmHg 69%
18:00 +16°C° 0.1 mm 5 mps 717 mmHg 77%
19:00 +14°C° 0.1 mm 5 mps 717 mmHg 85%
20:00 +13°C° 0.1 mm 4 mps 716 mmHg 87%
21:00 +11°C° 0.1 mm 3 mps 716 mmHg 90%
22:00 +10°C° 0.1 mm 3 mps 716 mmHg 92%
23:00 +10°C° 0 mm 2 mps 716 mmHg 93%

Tomorrow, 13 May, Thursday

Time Temperature Precipitation Wind Pressure Humidity
00:00 +10°C° 0 mm 1 mps 716 mmHg 95%
01:00 +10°C° 0 mm 1 mps 715 mmHg 96%
02:00 +9°C° 0 mm 1 mps 715 mmHg 96%
03:00 +9°C° 0 mm 1 mps 715 mmHg 96%
04:00 +9°C° 0 mm 1 mps 714 mmHg 96%
05:00 +9°C° 0 mm 0 mps 714 mmHg 95%
06:00 +10°C° 0 mm 0 mps 714 mmHg 93%
07:00 +11°C° 0 mm 0 mps 714 mmHg 91%
08:00 +11°C° 0 mm 0 mps 714 mmHg 90%
09:00 +12°C° 0 mm 0 mps 714 mmHg 89%
10:00 +13°C° 0 mm 1 mps 714 mmHg 88%
11:00 +13°C° 0.4 mm 1 mps 714 mmHg 89%
12:00 +13°C° 0.4 mm 1 mps 714 mmHg 90%
13:00 +13°C° 0.4 mm 2 mps 714 mmHg 91%
14:00 +13°C° 1.1 mm 2 mps 714 mmHg 92%
15:00 +12°C° 1.1 mm 2 mps 714 mmHg 93%
16:00 +12°C° 1.1 mm 2 mps 714 mmHg 95%
17:00 +11°C° 0.4 mm 1 mps 714 mmHg 95%
18:00 +11°C° 0.4 mm 1 mps 714 mmHg 95%
19:00 +11°C° 0.4 mm 1 mps 714 mmHg 95%
20:00 +11°C° 0.1 mm 1 mps 714 mmHg 95%
21:00 +11°C° 0.1 mm 1 mps 714 mmHg 94%
22:00 +10°C° 0.1 mm 1 mps 714 mmHg 94%
23:00 +10°C° 0 mm 1 mps 715 mmHg 94%

Day after tomorrow, 14 May, Friday

Time Temperature Precipitation Wind Pressure Humidity
00:00 +10°C° 0 mm 1 mps 715 mmHg 93%
01:00 +10°C° 0 mm 1 mps 715 mmHg 93%
02:00 +10°C° 0.1 mm 1 mps 715 mmHg 94%
03:00 +9°C° 0.1 mm 2 mps 715 mmHg 94%
04:00 +9°C° 0.1 mm 2 mps 715 mmHg 94%
05:00 +9°C° 0.1 mm 2 mps 716 mmHg 94%
06:00 +9°C° 0.1 mm 2 mps 716 mmHg 94%
07:00 +9°C° 0.1 mm 2 mps 717 mmHg 93%
08:00 +9°C° 0.1 mm 2 mps 717 mmHg 92%
09:00 +9°C° 0.1 mm 2 mps 718 mmHg 91%
10:00 +9°C° 0.1 mm 3 mps 718 mmHg 90%
11:00 +10°C° 0.1 mm 2 mps 719 mmHg 86%
12:00 +12°C° 0.1 mm 2 mps 719 mmHg 82%
13:00 +12°C° 0.1 mm 2 mps 719 mmHg 78%
14:00 +13°C° 0.1 mm 2 mps 719 mmHg 75%
15:00 +14°C° 0.1 mm 2 mps 719 mmHg 71%
16:00 +15°C° 0.1 mm 2 mps 719 mmHg 68%
17:00 +14°C° 0.1 mm 2 mps 719 mmHg 74%
18:00 +12°C° 0.1 mm 1 mps 719 mmHg 81%
19:00 +11°C° 0.1 mm 1 mps 719 mmHg 87%
20:00 +10°C° 0 mm 1 mps 719 mmHg 88%
21:00 +9°C° 0 mm 1 mps 720 mmHg 90%
22:00 +8°C° 0 mm 2 mps 720 mmHg 92%
23:00 +7°C° 0 mm 2 mps 720 mmHg 92%

15 May, Saturday

Time Temperature Precipitation Wind Pressure Humidity
00:00 +8°C° 0 mm 1 mps 720 mmHg 92%
01:00 +8°C° 0 mm 1 mps 720 mmHg 92%
02:00 +8°C° 0 mm 1 mps 720 mmHg 92%
03:00 +8°C° 0 mm 1 mps 720 mmHg 92%
04:00 +7°C° 0 mm 1 mps 720 mmHg 93%
05:00 +9°C° 0 mm 1 mps 720 mmHg 89%
06:00 +11°C° 0 mm 1 mps 720 mmHg 85%
07:00 +12°C° 0 mm 1 mps 720 mmHg 81%
08:00 +14°C° 0.3 mm 1 mps 720 mmHg 77%
09:00 +15°C° 0.3 mm 2 mps 720 mmHg 74%
10:00 +16°C° 0.3 mm 2 mps 720 mmHg 70%
11:00 +17°C° 0.6 mm 2 mps 720 mmHg 68%
12:00 +17°C° 0.6 mm 2 mps 720 mmHg 66%
13:00 +17°C° 0.6 mm 2 mps 719 mmHg 64%
14:00 +17°C° 0.7 mm 2 mps 719 mmHg 68%
15:00 +16°C° 0.7 mm 1 mps 719 mmHg 72%
16:00 +16°C° 0.7 mm 1 mps 719 mmHg 77%
17:00 +15°C° 0.5 mm 1 mps 719 mmHg 81%
18:00 +13°C° 0.5 mm 1 mps 718 mmHg 85%
19:00 +12°C° 0.5 mm 1 mps 718 mmHg 89%
20:00 +11°C° 0 mm 1 mps 718 mmHg 90%
21:00 +11°C° 0 mm 1 mps 718 mmHg 91%
22:00 +10°C° 0 mm 1 mps 718 mmHg 92%
23:00 +9°C° 0 mm 1 mps 718 mmHg 93%

16 May, Sunday

Time Temperature Precipitation Wind Pressure Humidity
00:00 +9°C° 0 mm 1 mps 718 mmHg 93%
01:00 +9°C° 0 mm 1 mps 718 mmHg 94%
02:00 +8°C° 0 mm 1 mps 718 mmHg 95%
03:00 +8°C° 0 mm 1 mps 718 mmHg 95%
04:00 +8°C° 0 mm 1 mps 718 mmHg 96%
05:00 +9°C° 0 mm 1 mps 718 mmHg 95%
06:00 +10°C° 0 mm 2 mps 718 mmHg 93%
07:00 +12°C° 0 mm 2 mps 719 mmHg 92%
08:00 +13°C° 0 mm 2 mps 719 mmHg 89%
09:00 +12°C° 0 mm 3 mps 719 mmHg 86%
10:00 +13°C° 0 mm 3 mps 719 mmHg 83%
11:00 +14°C° 0.2 mm 2 mps 718 mmHg 85%
12:00 +14°C° 0.2 mm 2 mps 718 mmHg 87%
13:00 +14°C° 0.2 mm 2 mps 718 mmHg 89%
14:00 +14°C° 0.4 mm 2 mps 718 mmHg 89%
15:00 +14°C° 0.4 mm 2 mps 718 mmHg 89%
16:00 +14°C° 0.4 mm 2 mps 718 mmHg 89%
17:00 +13°C° 0.2 mm 3 mps 718 mmHg 91%
18:00 +12°C° 0.2 mm 3 mps 718 mmHg 92%
19:00 +11°C° 0.2 mm 3 mps 718 mmHg 93%
20:00 +11°C° 0.1 mm 3 mps 718 mmHg 93%
21:00 +11°C° 0.1 mm 3 mps 718 mmHg 93%
22:00 +11°C° 0.1 mm 4 mps 718 mmHg 94%
23:00 +10°C° 0 mm 4 mps 719 mmHg 94%

17 May, Monday

Time Temperature Precipitation Wind Pressure Humidity
00:00 +10°C° 0 mm 4 mps 719 mmHg 94%
01:00 +8°C° 0 mm 4 mps 719 mmHg 94%
02:00 +9°C° 0 mm 3 mps 719 mmHg 94%
03:00 +8°C° 0 mm 3 mps 719 mmHg 94%
04:00 +8°C° 0 mm 3 mps 719 mmHg 93%
05:00 +8°C° 0 mm 4 mps 719 mmHg 88%
06:00 +10°C° 0 mm 4 mps 719 mmHg 83%
07:00 +11°C° 0 mm 4 mps 720 mmHg 78%
08:00 +13°C° 0 mm 5 mps 720 mmHg 72%
09:00 +14°C° 0 mm 5 mps 720 mmHg 66%
10:00 +15°C° 0 mm 5 mps 720 mmHg 60%
11:00 +16°C° 0 mm 5 mps 720 mmHg 58%
12:00 +16°C° 0 mm 5 mps 720 mmHg 56%
13:00 +16°C° 0 mm 5 mps 720 mmHg 54%
14:00 +17°C° 0 mm 4 mps 720 mmHg 55%
15:00 +17°C° 0 mm 4 mps 720 mmHg 55%
16:00 +17°C° 0 mm 3 mps 720 mmHg 55%
17:00 +16°C° 0 mm 2 mps 720 mmHg 63%
18:00 +14°C° 0 mm 1 mps 720 mmHg 71%
19:00 +11°C° 0 mm 0 mps 719 mmHg 78%
20:00 +11°C° 0 mm 1 mps 720 mmHg 81%
21:00 +10°C° 0 mm 1 mps 720 mmHg 83%
22:00 +9°C° 0 mm 1 mps 720 mmHg 85%
23:00 +9°C° 0 mm 1 mps 720 mmHg 85%
Show more

We Need Your Consent

Meteoprog and our Service Providers may store and access personal data such as cookies, device identifiers or other similar technologies on your device and process such data to personalise content and ads, as well as provide social media features and to analyse the traffic.

  • Store and/or access information on your device

    Cookies, device identifiers or other information can be stored or accessed on your device for the purposes indicated above.

  • Personalised ads and content, ad and content measurement, audience insights, and products development

    Ads and content can be personalised based on a profile. More data can be added to better personalise ads and content. Ad and content performance can be measured. Insights about the audience who saw the ads and content can be derived. Such data can be used to develop or improve user’s experience, systems and software.

By clicking ‘I Agree’ you will allow the use of indicated cookies, device identifiers, web beacons or other similar technologies. Your settings can be changed in the browser on your device.

For certain purposes, legitimate interests may be relied on, rather than consent. You can read more about this in our Privacy and Cookie Policy.